Location: Mizzole
(45.4833°N, 11.0500°E)
Time: 12:22:26
(UTC+00:00)

Cosmos 1076 Rocket - Pass Details

Date: 21 October 2019
Orbit: 589 x 613 km, 82.5° (Epoch: 19 November)

Event Time Altitude Azimuth Distance (km) Brightness Sun altitude
Rises 17:17:11 0° 360° (N) 2,888 7.0 -10.6°
Reaches altitude 10° 17:19:39 10° 11° (N) 1,976 6.0 -11.0°
Maximum altitude 17:23:32 31° 73° (ENE) 1,087 4.3 -11.7°
Drops below altitude 10° 17:27:22 10° 136° (SE) 1,950 5.7 -12.4°
Sets 17:29:46 0° 147° (SSE) 2,844 6.7 -12.8°
